Location: Trois-Rivi�res
(46.3500°N, 72.5500°W)
Time: 04:02:09
(UTC-04:00)

Vanguard 1 - All Passes

Search period start: 23 October 2017 00:00
Search period end: 02 November 2017 00:00
Orbit: 650 x 3834 km, 34.3° (Epoch: 21 October)

Date Brightness Start Highest point End Pass type
(mag) Time Alt. Az. Time Alt. Az. Time Alt. Az.
23 Oct - 02:12:51 10° WSW 02:26:47 56° S 02:48:27 10° ESE visible
23 Oct - 04:33:56 10° W 04:51:19 51° SSW 05:13:14 10° SE visible
23 Oct - 06:58:11 10° W 07:15:17 30° SW 07:32:51 10° SSE daylight
23 Oct - 22:00:04 10° SSE 22:05:42 16° SE 22:13:05 10° E night (unlit)
24 Oct - 00:14:37 10° SW 00:25:09 43° SSE 00:42:45 10° E visible
24 Oct - 02:33:40 10° WSW 02:47:55 56° S 03:09:46 10° ESE visible
24 Oct - 04:55:09 10° W 05:12:25 46° SSW 05:33:44 10° SE visible
24 Oct - 07:20:33 10° W 07:35:54 24° SW 07:51:35 10° S daylight
24 Oct - 22:18:55 10° S 22:25:50 22° SE 22:35:54 10° E night (unlit)
25 Oct - 00:35:03 10° SW 00:45:55 47° SSE 01:04:21 10° E visible
25 Oct - 02:54:34 10° WSW 03:09:04 55° S 03:30:56 10° ESE visible
25 Oct - 05:16:29 10° W 05:33:26 41° SSW 05:53:56 10° SSE visible
25 Oct - 07:43:46 10° W 07:56:24 18° SW 08:09:17 10° SSW daylight
25 Oct - 22:38:28 10° SSW 22:46:07 27° SE 22:58:04 10° E visible
26 Oct - 00:55:38 10° WSW 01:06:48 51° SSE 01:25:52 10° E visible
26 Oct - 03:15:33 10° W 03:30:15 52° S 03:51:57 10° ESE visible
26 Oct - 05:38:01 10° W 05:54:23 35° SSW 06:13:44 10° SSE visible
26 Oct - 08:09:09 10° WSW 08:16:52 13° SW 08:24:39 10° SSW daylight
26 Oct - 22:58:25 10° SSW 23:06:32 33° SSE 23:19:56 10° E visible
27 Oct - 01:16:19 10° WSW 01:27:48 53° S 01:47:18 10° ESE visible
27 Oct - 03:36:36 10° W 03:51:24 48° SSW 04:12:44 10° SE visible
27 Oct - 05:59:51 10° W 06:15:13 29° SW 06:33:02 10° SSE visible
27 Oct - 21:05:16 10° SSE 21:08:19 12° SE 21:11:54 10° ESE night (unlit)
27 Oct - 23:18:38 10° SW 23:27:07 39° SSE 23:41:37 10° E visible
28 Oct - 01:37:07 10° WSW 01:48:51 53° S 02:08:38 10° ESE visible
28 Oct - 03:57:45 10° W 04:12:31 44° SSW 04:33:14 10° SE visible
28 Oct - 06:22:10 10° W 06:35:59 23° SW 06:51:37 10° S visible
28 Oct - 21:23:30 10° S 21:28:28 17° SE 21:35:14 10° E night (unlit)
28 Oct - 23:39:02 10° SW 23:47:49 43° SSE 00:03:11 10° E visible
29 Oct - 01:57:58 10° WSW 02:09:56 51° S 02:29:49 10° ESE visible
29 Oct - 04:19:02 10° W 04:33:34 38° SSW 04:53:24 10° SSE visible
29 Oct - 06:45:27 10° WSW 06:56:41 17° SW 07:09:02 10° SSW visible
29 Oct - 21:42:53 10° S 21:48:45 23° SE 21:57:29 10° E night (unlit)
29 Oct - 23:59:36 10° SW 00:08:39 46° SSE 00:24:40 10° ESE visible
30 Oct - 02:18:53 10° W 02:31:03 49° S 02:50:50 10° SE visible
30 Oct - 04:40:32 10° W 04:54:35 33° SSW 05:13:08 10° SSE visible
30 Oct - 07:11:28 10° WSW 07:17:20 12° SW 07:23:30 10° SSW daylight
30 Oct - 22:02:46 10° SSW 22:09:10 28° SSE 22:19:19 10° E night (unlit)
31 Oct - 00:20:15 10° WSW 00:29:33 48° S 00:46:04 10° ESE visible
31 Oct - 02:39:53 10° W 02:52:09 45° SSW 03:11:36 10° SE visible
31 Oct - 05:02:21 10° W 05:15:32 27° SW 05:32:19 10° SSE visible
31 Oct - 22:22:57 10° SW 22:29:43 34° SSE 22:40:58 10° E night (unlit)
01 Nov - 00:41:00 10° WSW 00:50:32 48° S 01:07:22 10° ESE visible
01 Nov - 03:01:00 10° W 03:13:15 40° SSW 03:32:05 10° SE visible
01 Nov - 05:24:46 10° WSW 05:36:26 21° SW 05:50:40 10° S visible
01 Nov - 20:28:32 10° SSE 20:31:31 13° SE 20:35:08 10° ESE visible
01 Nov - 22:43:20 10° SW 22:50:23 38° SSE 23:02:28 10° E night (unlit)
